Home > Weather > Lemgo > Past weeks

Flag for Germany Past Weather in Lemgo, North Rhine-Westphalia, Germany — Yesterday and Last 2 Weeks

Now
66 °F

Partly sunny.


Feels Like: 66 °F
Forecast: 59 / 70 °F
Wind: 10 mph from Southwest

Location: Bueckeburg

Current Time: Jul 29, 2016 at 12:15:14 PM

Latest Report: Jul 29, 2016 at 11:20 AM


Visibility: N/A

Pressure: 29.89 "Hg

Humidity: 78%

Dew Point: 59 °F

Location of LemgoLocation

Past Weather in Lemgo — Graph

°F

Lemgo Temperature Yesterday

Maximum temperature yesterday: 73 °F (at 5:20 PM)
Minimum temperature yesterday: 64 °F (at 5:20 AM)
Average temperature yesterday: 67 °F

High & Low Weather Summary for the Past Weeks

 TemperatureHumidityPressure
High90 °F (Jul 20, 3:20 PM)100% (Jul 17, 3:20 AM)30.24 "Hg (Jul 17, 3:20 AM)
Low54 °F (Jul 15, 3:20 AM)28% (Jul 17, 4:20 PM)29.86 "Hg (Jul 20, 8:20 PM)
Average69 °F70%30.06 "Hg
* Reported Jul 14 10:20 AM — Jul 29 10:20 AM, Lemgo, Weather by CustomWeather, © 2016

Note: Actual official high and low records may vary slightly from our data, if they occured in-between our weather recording intervals... More about our weather records

Advertising

Lemgo Weather History for the Previous 24 Hours

Scroll right to see more
 ConditionsComfort  
Time TempWeatherWind HumidityBarometerVisibility
10:20 AM
Fri, Jul 29
64 °FPartly sunny.10 mph83%29.89 "HgN/A
9:48 AM63 °FPartly sunny.13 mph83%29.89 "HgN/A
9:20 AM64 °FBroken clouds.12 mph78%29.89 "HgN/A
8:20 AM64 °FBroken clouds.9 mph83%29.89 "HgN/A
7:20 AM63 °FPartly sunny.3 mph88%29.89 "HgN/A
6:20 AM63 °FFog.7 mph94%29.89 "Hg3 mi
5:20 AM63 °FLight rain. Partly cloudy.6 mph94%29.89 "Hg4 mi
4:20 AM64 °FPassing clouds.5 mph83%29.89 "HgN/A
3:20 AM64 °FPassing clouds.7 mph83%29.89 "HgN/A
2:20 AM64 °FPartly cloudy.10 mph88%29.89 "HgN/A
1:20 AM64 °FPassing clouds.7 mph88%29.89 "HgN/A
12:20 AM64 °FPartly cloudy.5 mph88%29.89 "HgN/A
11:20 PM
Thu, Jul 28
64 °FPassing clouds.6 mph88%29.89 "HgN/A
10:20 PM64 °FPassing clouds.2 mph88%29.92 "HgN/A
9:20 PM66 °FBroken clouds.8 mph83%29.92 "HgN/A
8:20 PM68 °FPartly sunny.6 mph78%29.89 "HgN/A
7:20 PM68 °FSprinkles. Broken clouds.14 mph78%29.89 "HgN/A
6:20 PM72 °FBroken clouds.13 mph69%29.92 "HgN/A
5:20 PM73 °FBroken clouds.12 mph65%29.92 "HgN/A
4:20 PM72 °FBroken clouds.9 mph69%29.95 "HgN/A
3:20 PM70 °FBroken clouds.8 mph78%29.95 "HgN/A
2:20 PM70 °FBroken clouds.5 mph83%29.98 "Hg4 mi
1:20 PM64 °FFog.1 mph94%29.98 "Hg3 mi
12:20 PM64 °FPartly sunny.3 mph94%29.98 "Hg4 mi
Weather by CustomWeather, © 2016

See weather overviewHow to use our weather pages